Hourly Data Report for October 31, 2016

All times are specified in Local Standard Time (LST). Add 1 hour to adjust for Daylight Saving Time where and when it is observed.

KAMLOOPS A
BRITISH COLUMBIA

50°42'09.000" N
120°26'55.000" W
345.30 m
1163781
71887
YKA

Download Data

Hourly Data (October 2016)
Hourly Data Report for October 31, 2016
Temp Definition
°C
Dew Point Temp Definition
°C
Rel Hum Definition
%
Wind Dir Definition
10's deg

Wind Spd Definition
km/h
Visibility Definition
km
Stn Press Definition
kPa
Hmdx Definition


Wind Chill Definition


Weather Definition


TIME
00:00 Legend Double Dagger 6.3 3.8 84 36 3 64.4 96.22     LegendNANA
01:00 Legend Double Dagger 6.1 4.3 88 23 3 64.4 96.21     Rain
02:00 Legend Double Dagger 6.1 4.4 89 25 4 32.2 96.21     Rain
03:00 Legend Double Dagger 5.9 4.7 92 24 4 32.2 96.22     Rain
04:00 Legend Double Dagger 5.6 4.9 95 9 3 32.2 96.23     Cloudy
05:00 Legend Double Dagger 5.7 5.1 96 10 4 32.2 96.26     Rain
06:00 Legend Double Dagger 5.9 5.3 96 7 3 32.2 96.27     LegendNANA
07:00 Legend Double Dagger 5.8 5.1 95 10 7 16.1 96.27     Rain
08:00 Legend Double Dagger 5.9 4.9 93 11 8 16.1 96.30     Rain
09:00 Legend Double Dagger 6.3 4.8 90 10 9 16.1 96.33     Rain
10:00 Legend Double Dagger 6.8 5.0 88 10 9 24.1 96.34     Cloudy
11:00 Legend Double Dagger 7.3 5.0 85 11 8 24.1 96.34     LegendNANA
12:00 Legend Double Dagger 7.5 4.8 83 8 7 24.1 96.32     LegendNANA
13:00 Legend Double Dagger 7.6 5.1 84 11 4 24.1 96.29     Rain
14:00 Legend Double Dagger 7.5 5.7 88 11 3 16.1 96.28     Rain
15:00 Legend Double Dagger 7.5 5.5 87 36 2 24.1 96.29     Rain
16:00 Legend Double Dagger 7.4 5.6 88 20 4 24.1 96.31     Cloudy
17:00 Legend Double Dagger 7.3 5.6 89 11 7 24.1 96.33     LegendNANA
18:00 Legend Double Dagger 6.9 5.4 90 10 8 24.1 96.38     Rain
19:00 Legend Double Dagger 6.6 5.2 91 10 9 24.1 96.43     Cloudy
20:00 Legend Double Dagger 6.6 5.1 90 9 9 24.1 96.49     LegendNANA
21:00 Legend Double Dagger 6.1 4.4 89 10 14 24.1 96.56     LegendNANA
22:00 Legend Double Dagger 4.5 3.2 91 10 7 64.4 96.61     Mostly Cloudy
23:00 Legend Double Dagger 4.6 3.6 93 5 3 64.4 96.65     LegendNANA

Notes on Data Quality.

Legend

  • E = Estimated
  • M = Missing
  • NA = Not Available
  • ‡ = Partner data that is not subject to review by the National Climate Archives
Date modified: